Window Rock, AZ

8:21 AM MDT on April 30, 2017 (GMT -0600)
Window Rock

Weather History for KRQE - February, 2012

Change the Weather History Date:

Tuesday, February 7, 2012

  Actual Average Record
Temperature  
Mean Temperature 24 °F -  
Max Temperature 43 °F 43 °F 66 °F (1963)
Min Temperature 6 °F 15 °F -11 °F (1989)
Degree Days  
Heating Degree Days 40    
Moisture  
Dew Point 11 °F    
Average Humidity 62    
Maximum Humidity 92    
Minimum Humidity 29    
Precipitation  
Precipitation 0.00 in - - ()
Sea Level Pressure  
Sea Level Pressure 30.22 in    
Wind  
Wind Speed 2 mph (East)    
Max Wind Speed 8 mph    
Max Gust Speed -    
Visibility 10 miles    
Events      
Averages and records for this station are not official NWS values.
T = Trace of Precipitation, MM = Missing Value Source: NWS Daily Summary

Daily Weather History Graph

Daily Weather History Graph

Search for Another Location

Airport or City:

Trip Planner

Search our weather history database for the weather conditions in past years. The results will help you decide how hot, cold, wet, or windy it might be!

Date:

Astronomy

Feb. 07, 2012 Rise Set
Actual Time 7:11 AM MST 5:49 PM MST
Civil Twilight 6:45 AM MST 6:16 PM MST
Nautical Twilight 6:14 AM MST 6:46 PM MST
Astronomical Twilight 5:44 AM MST 7:16 PM MST
Moon 6:02 PM MST (2/7) 6:43 AM MST (2/7)
Length of Visible Light 11h 31m
Length of Day
10h 38m
Full, 100% of the Moon is Illuminated
Feb 7
Full
Feb 7
Full
Feb 14
Last Quarter
Feb 21
New
Feb 29
First Quarter

Hourly Weather History & Observations

Time (MST) Temp. Windchill Dew Point Humidity Pressure Visibility Wind Dir Wind Speed Gust Speed Precip Events Conditions
12:53 AM 9.0 °F - 7.0 °F 92% 30.17 in 10.0 mi Calm Calm - N/A   Clear
1:53 AM 12.9 °F - 10.9 °F 92% 30.15 in 10.0 mi Calm Calm - N/A   Clear
2:53 AM 10.9 °F - 8.1 °F 88% 30.16 in 10.0 mi Calm Calm - N/A   Clear
3:53 AM 9.0 °F - 6.1 °F 88% 30.18 in 10.0 mi Calm Calm - N/A   Clear
4:53 AM 8.1 °F - 5.0 °F 87% 30.19 in 10.0 mi Calm Calm - N/A   Clear
5:53 AM 8.1 °F - 5.0 °F 87% 30.23 in 10.0 mi Calm Calm - N/A   Clear
6:53 AM 6.1 °F - 3.9 °F 91% 30.29 in 10.0 mi Calm Calm - N/A   Clear
7:53 AM 7.0 °F - 3.9 °F 87% 30.32 in 10.0 mi Calm Calm - N/A   Clear
8:53 AM 18.0 °F - 14.0 °F 84% 30.29 in 10.0 mi Calm Calm - N/A   Clear
9:53 AM 26.1 °F - 18.0 °F 71% 30.29 in 10.0 mi Calm Calm - N/A   Clear
10:53 AM 34.0 °F 28.8 °F 18.0 °F 52% 30.25 in 10.0 mi Variable 5.8 mph - N/A   Clear
11:53 AM 37.0 °F 32.4 °F 12.9 °F 37% 30.24 in 10.0 mi Variable 5.8 mph - N/A   Clear
12:53 PM 42.1 °F 37.1 °F 12.9 °F 31% 30.20 in 10.0 mi WSW 8.1 mph - N/A   Clear
1:53 PM 39.9 °F 36.7 °F 12.9 °F 33% 30.17 in 10.0 mi East 4.6 mph - N/A   Clear
2:53 PM 42.1 °F 38.4 °F 12.0 °F 29% 30.16 in 10.0 mi Variable 5.8 mph - N/A   Clear
3:53 PM 43.0 °F 38.8 °F 14.0 °F 31% 30.17 in 10.0 mi ENE 6.9 mph - N/A   Clear
4:53 PM 41.0 °F 35.8 °F 14.0 °F 33% 30.18 in 10.0 mi ENE 8.1 mph - N/A   Clear
5:53 PM 35.1 °F 29.3 °F 16.0 °F 46% 30.22 in 10.0 mi ENE 6.9 mph - N/A   Clear
6:53 PM 35.1 °F - 14.0 °F 42% 30.24 in 10.0 mi Calm Calm - N/A   Clear
7:53 PM 30.9 °F - 14.0 °F 50% 30.28 in 10.0 mi Calm Calm - N/A   Partly Cloudy
8:53 PM 30.9 °F 27.5 °F 12.0 °F 46% 30.24 in 10.0 mi East 3.5 mph - N/A   Scattered Clouds
9:53 PM 23.0 °F - 12.0 °F 63% 30.25 in 10.0 mi Calm Calm - N/A   Scattered Clouds
10:53 PM 26.1 °F - 14.0 °F 60% 30.21 in 10.0 mi Calm Calm - N/A   Clear
11:53 PM 21.9 °F - 12.9 °F 68% 30.21 in 10.0 mi Calm Calm - N/A   Partly Cloudy